Stations météo

réclame
Mon MeteoGroup
Pertusato, France (7770): Température de l'air & dewpoint: 14.10.2018 21:00:00 - 20.10.2018 21:00:00 (CEST)Pertusato, France (7770): Vitesse du vent & gusts: 14.10.2018 21:00:00 - 20.10.2018 21:00:00 (CEST)Pertusato, France (7770): Direction du vent: 14.10.2018 21:00:00 - 20.10.2018 21:00:00 (CEST)Pertusato, France (7770): reduced air pressure: 14.10.2018 21:00:00 - 20.10.2018 21:00:00 (CEST)Pertusato, France (7770): visibility: 14.10.2018 21:00:00 - 20.10.2018 21:00:00 (CEST)Pertusato, France (7770): Quantités de précipitations: 14.10.2018 21:00:00 - 20.10.2018 21:00:00 (CEST)
Date & Time tt [°C] td [°C] ff [km/h] ff [knt] fx [km/h] fx [knt] dd ppp [hPa] vv [km] rr [mm]
20.10.2018 21:00:00 20,1 19,1 4 2 7 4 WSW 1021,2 - 0,0
20.10.2018 20:00:00 20,2 18,9 3 2 9 5 W 1021,1 - 0,0
20.10.2018 19:00:00 20,5 19,0 4 2 10 5 W 1020,7 - 0,0
20.10.2018 18:00:00 20,9 18,5 7 4 11 6 WNW 1020,6 - 0,0
20.10.2018 17:00:00 22,0 17,8 3 2 10 5 SW 1020,6 - 0,0
20.10.2018 16:00:00 23,2 18,3 3 2 8 5 S 1020,5 - 0,0
20.10.2018 15:00:00 21,4 18,8 9 5 15 8 WNW 1021,0 - 0,0
20.10.2018 14:00:00 21,8 18,8 5 3 11 6 W 1021,0 10 0,0
20.10.2018 13:00:00 23,9 19,0 4 2 13 7 SW 1021,4 - 0,0
20.10.2018 12:00:00 23,4 16,9 8 5 13 7 SE 1021,4 - 0,0
20.10.2018 11:00:00 22,6 18,2 4 2 9 5 E 1021,3 15 0,0
20.10.2018 10:00:00 20,3 18,8 7 4 13 7 ENE 1021,2 - 0,0
20.10.2018 09:00:00 18,6 17,9 10 5 16 8 ENE 1020,8 - 0,2
20.10.2018 08:00:00 17,5 17,0 11 6 15 8 ENE 1020,1 - 0,0
20.10.2018 07:00:00 17,3 16,8 10 6 15 8 ENE 1019,8 15 0,0
20.10.2018 06:00:00 17,8 17,3 11 6 13 7 ENE 1019,5 - 0,0
20.10.2018 05:00:00 18,2 17,6 8 4 9 5 E 1019,1 - 0,0
20.10.2018 04:00:00 18,5 17,7 8 4 9 5 E 1019,0 - 0,0
20.10.2018 03:00:00 18,2 17,2 8 4 9 5 ENE 1018,9 - 0,0
20.10.2018 02:00:00 18,2 17,0 9 5 13 7 NE 1018,8 - 0,0
20.10.2018 01:00:00 18,2 16,9 11 6 16 9 NE 1018,8 - 0,0
20.10.2018 00:00:00 18,0 16,8 11 6 17 9 NE 1018,6 - 0,2
19.10.2018 23:00:00 18,0 16,7 12 7 16 9 NE 1018,6 15 0,0
19.10.2018 22:00:00 18,2 17,0 10 5 19 10 ENE 1018,4 - 0,0
19.10.2018 21:00:00 18,8 17,6 11 6 14 8 ENE 1018,1 - 0,0
19.10.2018 20:00:00 18,9 17,4 12 6 24 13 ENE 1017,6 15 0,0
19.10.2018 19:00:00 19,5 17,6 14 7 19 10 E 1016,7 - 0,0
19.10.2018 18:00:00 20,8 17,6 14 7 26 14 E 1016,2 - 0,0
19.10.2018 17:00:00 22,2 17,3 18 10 30 16 E 1015,9 15 0,0
19.10.2018 16:00:00 23,2 16,7 22 12 32 17 ENE 1015,5 - 0,0
19.10.2018 15:00:00 24,0 16,5 18 10 29 15 E 1015,7 - 0,0
19.10.2018 14:00:00 23,5 16,3 19 11 31 17 ENE 1015,8 - 0,0
19.10.2018 13:00:00 24,3 17,1 19 10 36 20 ENE 1016,1 - 0,0
19.10.2018 12:00:00 23,7 17,7 24 13 40 22 ENE 1016,4 - 0,0
19.10.2018 11:00:00 23,1 17,1 23 12 36 20 ENE 1016,1 - 0,0
19.10.2018 10:00:00 21,9 17,5 22 12 34 18 ENE 1015,6 - 0,0
19.10.2018 09:00:00 20,4 17,4 22 12 39 21 ENE 1015,5 - 0,0
19.10.2018 08:00:00 19,3 17,3 21 11 34 18 NE 1015,0 - 0,0
19.10.2018 07:00:00 19,1 17,1 21 12 40 21 NE 1013,8 - 0,0
19.10.2018 06:00:00 19,2 17,5 26 14 43 23 NE 1013,4 - 0,0
19.10.2018 05:00:00 18,7 16,8 20 11 38 21 ENE 1013,4 15 0,0
19.10.2018 04:00:00 19,0 17,3 25 13 45 24 NE 1013,1 - 0,0
19.10.2018 03:00:00 19,0 17,1 23 12 38 21 NE 1013,1 - 0,0
19.10.2018 02:00:00 19,3 17,8 24 13 35 19 NE 1013,1 - 0,0
19.10.2018 01:00:00 19,4 16,6 21 11 31 17 NE 1012,8 - 0,0
19.10.2018 00:00:00 19,5 16,3 22 12 34 19 NE 1013,2 - 0,0
18.10.2018 23:00:00 19,3 16,9 24 13 41 22 ENE 1013,0 - 0,0
18.10.2018 22:00:00 19,7 17,1 25 14 46 25 ENE 1012,8 - 0,0
18.10.2018 21:00:00 19,6 17,0 26 14 44 24 ENE 1012,5 - 0,0
18.10.2018 20:00:00 19,9 17,3 26 14 44 24 ENE 1011,8 - 0,0
18.10.2018 19:00:00 20,0 15,8 28 15 47 26 ENE 1011,0 - 0,0
18.10.2018 18:00:00 20,5 15,7 29 16 58 31 ENE 1010,3 - 0,0
18.10.2018 17:00:00 21,0 17,2 39 21 63 34 ENE 1010,2 15 0,0
18.10.2018 16:00:00 21,6 17,6 36 19 59 32 ENE 1010,4 - 0,0
18.10.2018 15:00:00 22,2 18,2 38 21 63 34 ENE 1010,5 - 0,0
18.10.2018 14:00:00 22,6 18,2 38 21 62 34 ENE 1010,8 15 0,0
18.10.2018 13:00:00 21,9 17,9 41 22 63 34 NE 1011,4 - 0,0
18.10.2018 12:00:00 22,3 18,1 39 21 61 33 NE 1012,2 - 0,0
18.10.2018 11:00:00 21,5 17,9 41 22 65 35 NE 1011,7 12 0,0
18.10.2018 10:00:00 20,8 17,4 37 20 61 33 NE 1011,5 - 0,0
18.10.2018 09:00:00 19,9 16,3 36 20 55 30 NE 1011,6 - 0,0
18.10.2018 08:00:00 19,3 16,1 31 17 51 28 NE 1011,2 17 0,0
18.10.2018 07:00:00 18,6 16,7 25 14 44 24 NE 1011,2 - 0,0
18.10.2018 06:00:00 18,4 17,2 26 14 49 27 NE 1011,6 - 0,0
18.10.2018 05:00:00 18,4 17,6 32 17 56 30 NE 1011,4 15 0,0
18.10.2018 04:00:00 18,5 17,8 31 17 49 27 NE 1011,6 - 0,0
18.10.2018 03:00:00 18,4 17,7 28 15 49 26 ENE 1012,0 - 0,0
18.10.2018 02:00:00 18,2 17,6 25 13 40 22 NE 1012,6 - 0,0
18.10.2018 01:00:00 18,0 17,4 24 13 40 21 NE 1013,0 - 2,0
18.10.2018 00:00:00 18,4 17,9 31 17 46 25 NE 1013,5 - 12,9
17.10.2018 23:00:00 19,0 18,3 25 14 50 27 NE 1013,5 - 0,2
17.10.2018 22:00:00 19,5 18,7 21 11 34 18 ENE 1013,6 - 1,0
17.10.2018 21:00:00 19,4 18,2 24 13 38 21 NE 1013,4 - 0,0
17.10.2018 20:00:00 19,0 17,1 21 11 30 16 ENE 1013,1 17 0,0
17.10.2018 19:00:00 19,2 17,2 19 10 31 17 ENE 1012,9 - 0,0
17.10.2018 18:00:00 19,8 17,6 23 12 38 20 E 1012,8 - 0,0
17.10.2018 17:00:00 20,7 18,5 26 14 44 24 ENE 1012,6 16 0,0
17.10.2018 16:00:00 21,5 18,5 25 14 46 25 ENE 1013,1 - 0,0
17.10.2018 15:00:00 22,5 18,3 28 15 46 25 E 1012,9 - 0,0
17.10.2018 14:00:00 22,5 17,6 24 13 41 22 ENE 1013,0 16 0,0
17.10.2018 13:00:00 22,1 18,5 23 12 32 18 ENE 1013,4 - 0,0
17.10.2018 12:00:00 20,4 18,2 16 9 28 15 ENE 1013,8 - 0,0
17.10.2018 11:00:00 19,8 18,8 19 11 35 19 ENE 1013,9 12 0,0
17.10.2018 10:00:00 18,2 17,4 21 12 42 23 NE 1014,2 12 0,2
17.10.2018 09:00:00 18,0 17,4 25 13 54 29 NE 1013,5 - 0,8
17.10.2018 08:00:00 17,8 17,0 29 16 45 25 NE 1013,4 - 0,2
17.10.2018 07:00:00 17,5 16,9 26 14 41 22 NE 1013,3 - 0,0
17.10.2018 06:00:00 17,0 16,4 21 12 36 19 NE 1013,4 - 0,8
17.10.2018 05:00:00 17,6 17,0 24 13 46 25 NE 1013,2 - 3,6
17.10.2018 04:00:00 18,4 17,6 22 12 45 24 NE 1014,1 - 1,2
17.10.2018 03:00:00 18,4 16,9 32 17 52 28 NE 1014,7 - 0,0
17.10.2018 02:00:00 18,6 17,4 27 15 42 23 NE 1015,1 15 0,0
17.10.2018 01:00:00 18,4 17,4 25 13 38 21 NE 1015,1 - 0,0
17.10.2018 00:00:00 18,6 17,6 24 13 37 20 NE 1015,5 - 0,2
16.10.2018 23:00:00 18,6 17,4 19 11 29 16 NE 1016,0 - 0,0
16.10.2018 22:00:00 18,8 17,6 17 9 28 15 NE 1016,4 - 0,0
16.10.2018 21:00:00 18,9 17,9 18 10 28 15 NE 1016,1 - 0,0
16.10.2018 20:00:00 18,7 17,5 16 9 22 12 ENE 1015,8 22 0,0
16.10.2018 19:00:00 18,8 16,9 13 7 19 10 NE 1015,6 - 0,0
16.10.2018 18:00:00 20,1 17,7 13 7 21 11 E 1015,4 - 0,0
16.10.2018 17:00:00 22,1 17,9 13 7 22 12 E 1015,2 - 0,0
16.10.2018 16:00:00 22,4 17,1 7 4 18 10 W 1014,8 - 0,0
16.10.2018 15:00:00 22,3 17,4 8 4 14 7 W 1014,5 - 0,0
16.10.2018 14:00:00 22,6 17,5 6 3 13 7 SW 1014,9 - 0,0
16.10.2018 13:00:00 22,2 16,2 5 3 16 9 SW 1015,1 - 0,0
16.10.2018 12:00:00 22,6 16,2 4 2 18 10 S 1015,2 - 0,0
16.10.2018 11:00:00 20,7 17,9 15 8 25 13 NE 1015,5 - 0,0
16.10.2018 10:00:00 19,2 18,2 14 7 32 17 NE 1015,5 - 0,0
16.10.2018 09:00:00 17,9 17,1 22 12 35 19 NE 1015,3 - 0,0
16.10.2018 08:00:00 16,9 16,3 23 13 34 18 NE 1014,0 - 0,0
16.10.2018 07:00:00 16,7 16,1 21 12 31 17 NE 1014,0 - 0,0
16.10.2018 06:00:00 16,4 15,8 20 11 32 17 NE 1014,6 - 0,8
16.10.2018 05:00:00 16,3 15,5 23 13 36 20 NE 1014,4 - 1,2
16.10.2018 04:00:00 16,6 15,6 24 13 34 18 NE 1014,5 - 0,0
16.10.2018 03:00:00 16,7 15,7 22 12 35 19 NE 1015,1 - 0,6
16.10.2018 02:00:00 17,9 17,3 22 12 32 18 NE 1015,4 - 0,4
16.10.2018 01:00:00 18,1 17,3 18 10 30 16 NE 1015,5 - 0,0
16.10.2018 00:00:00 17,6 16,6 22 12 36 20 NE 1015,8 - 0,4
15.10.2018 23:00:00 18,2 17,4 20 11 41 22 ENE 1015,9 - 4,9
15.10.2018 22:00:00 18,8 17,6 20 11 34 18 ENE 1015,8 - 1,4
15.10.2018 21:00:00 19,7 16,5 20 11 34 18 ENE 1015,4 - 0,0
15.10.2018 20:00:00 19,8 16,4 21 12 34 19 ENE 1015,1 12 0,0
15.10.2018 19:00:00 20,0 16,0 21 12 34 19 ENE 1014,8 - 0,0
15.10.2018 18:00:00 20,4 16,2 21 11 36 19 E 1014,7 - 0,0
15.10.2018 17:00:00 21,2 15,9 22 12 44 24 E 1014,4 12 0,0
15.10.2018 16:00:00 21,4 16,8 28 15 47 26 ENE 1014,0 - 0,0
15.10.2018 15:00:00 21,4 16,8 31 17 48 26 ENE 1013,7 - 0,0
15.10.2018 14:00:00 22,8 16,6 32 18 51 27 NE 1013,9 - 0,0
15.10.2018 13:00:00 23,0 17,0 29 16 48 26 ENE 1014,4 - 0,0
15.10.2018 12:00:00 21,4 16,6 30 16 46 25 ENE 1014,7 - 0,0
15.10.2018 11:00:00 21,2 17,0 28 15 47 25 ENE 1014,8 12 0,0
15.10.2018 10:00:00 20,3 16,9 29 16 45 25 ENE 1014,8 - 0,0
15.10.2018 09:00:00 19,3 16,7 29 16 50 27 ENE 1014,0 - 0,0
15.10.2018 08:00:00 18,8 16,6 27 15 44 24 ENE 1013,6 - 0,0
15.10.2018 07:00:00 18,8 16,8 24 13 42 23 ENE 1013,9 - 0,0
15.10.2018 06:00:00 18,9 16,1 26 14 40 22 NE 1013,8 - 0,0
15.10.2018 05:00:00 19,0 16,2 23 12 42 23 ENE 1014,0 - 0,0
15.10.2018 04:00:00 18,9 15,8 26 14 41 22 ENE 1014,2 - 0,0
15.10.2018 03:00:00 19,0 15,9 24 13 39 21 NE 1014,6 - 0,0
15.10.2018 02:00:00 18,7 15,9 24 13 39 21 NE 1015,0 - 0,0
15.10.2018 01:00:00 18,5 16,5 22 12 41 22 NE 1015,3 - 0,0
15.10.2018 00:00:00 18,9 16,7 24 13 40 22 ENE 1015,4 - 0,0
14.10.2018 23:00:00 19,2 16,6 23 13 40 22 ENE 1015,4 - 0,0
14.10.2018 22:00:00 18,7 16,3 22 12 36 19 ENE 1015,6 - 0,0
14.10.2018 21:00:00 18,8 16,2 22 12 34 18 ENE 1015,8 - 0,0

tt = Température de l'air
td = dewpoint
ff = Vitesse du vent
fx = gusts
dd = Direction du vent
ppp = reduced air pressure
vv = visibility
rr = Quantités de précipitations

stations d'obs. à proximité